Time,TemperatureF,DewpointF,PressureIn,WindDirection,WindDirectionDegrees,WindSpeedMPH,WindSpeedGustMPH,Humidity,HourlyPrecipIn,Conditions,Clouds,dailyrainin,SoftwareType,DateUTC
2013-04-07 00:03:00,53.0,51.0,30.21,ESE,105,0.0,1.0,94,0.00,,,0.00,,2013-04-07 04:03:00,
2013-04-07 00:15:00,53.0,51.0,30.21,ESE,105,0.0,1.0,94,0.00,,,0.00,,2013-04-07 04:15:00,
2013-04-07 00:23:00,53.0,52.0,30.21,ENE,58,0.0,3.0,95,0.00,,,0.00,,2013-04-07 04:23:00,
2013-04-07 00:32:00,53.0,52.0,30.20,East,91,1.0,2.0,95,0.00,,,0.00,,2013-04-07 04:32:00,
2013-04-07 00:43:00,53.0,52.0,30.20,East,91,1.0,2.0,95,0.00,,,0.00,,2013-04-07 04:43:00,
2013-04-07 00:53:00,53.0,52.0,30.20,ENE,59,2.0,3.0,95,0.00,,,0.00,,2013-04-07 04:53:00,
2013-04-07 01:02:00,53.0,52.0,30.20,ENE,74,1.0,3.0,96,0.00,,,0.00,,2013-04-07 05:02:00,
2013-04-07 01:12:00,53.0,52.0,30.20,ENE,74,1.0,3.0,96,0.00,,,0.00,,2013-04-07 05:12:00,
2013-04-07 01:23:00,53.0,52.0,30.19,NE,38,1.0,3.0,96,0.00,,,0.00,,2013-04-07 05:23:00,
2013-04-07 01:33:00,53.0,52.0,30.19,NNE,23,0.0,3.0,96,0.00,,,0.00,,2013-04-07 05:33:00,
2013-04-07 01:43:00,53.0,52.0,30.19,NNE,23,0.0,3.0,96,0.00,,,0.00,,2013-04-07 05:43:00,
2013-04-07 01:53:00,53.0,52.0,30.18,ENE,77,1.0,3.0,95,0.00,,,0.00,,2013-04-07 05:53:00,
2013-04-07 02:02:00,53.0,52.0,30.18,NNE,26,1.0,3.0,95,0.00,,,0.00,,2013-04-07 06:02:00,
2013-04-07 02:12:00,53.0,52.0,30.18,NNE,26,1.0,3.0,95,0.00,,,0.00,,2013-04-07 06:12:00,
2013-04-07 02:22:00,53.0,52.0,30.17,ENE,69,1.0,3.0,96,0.00,,,0.00,,2013-04-07 06:22:00,
2013-04-07 02:32:00,53.0,52.0,30.17,ENE,60,1.0,3.0,95,0.00,,,0.00,,2013-04-07 06:32:00,
2013-04-07 02:43:00,53.0,52.0,30.17,ENE,60,1.0,3.0,95,0.00,,,0.00,,2013-04-07 06:43:00,
2013-04-07 02:53:00,53.0,52.0,30.16,East,97,0.0,3.0,96,0.00,,,0.00,,2013-04-07 06:53:00,
2013-04-07 03:02:00,53.0,52.0,30.16,ENE,66,1.0,3.0,96,0.00,,,0.00,,2013-04-07 07:02:00,
2013-04-07 03:12:00,53.0,52.0,30.16,ENE,66,1.0,3.0,96,0.00,,,0.00,,2013-04-07 07:12:00,
2013-04-07 03:22:00,53.0,52.0,30.15,ESE,105,2.0,3.0,97,0.00,,,0.00,,2013-04-07 07:22:00,
2013-04-07 03:33:00,53.0,52.0,30.15,NE,56,0.0,3.0,96,0.00,,,0.00,,2013-04-07 07:33:00,
2013-04-07 03:42:00,53.0,52.0,30.15,NE,56,0.0,3.0,96,0.00,,,0.00,,2013-04-07 07:42:00,
2013-04-07 03:52:00,53.0,52.0,30.15,East,85,1.0,3.0,96,0.00,,,0.00,,2013-04-07 07:52:00,
2013-04-07 04:02:00,53.0,52.0,30.15,ENE,75,1.0,2.0,96,0.00,,,0.00,,2013-04-07 08:02:00,
2013-04-07 04:12:00,53.0,52.0,30.15,ENE,75,1.0,2.0,96,0.00,,,0.00,,2013-04-07 08:12:00,
2013-04-07 04:22:00,53.0,52.0,30.15,East,80,1.0,3.0,97,0.00,,,0.00,,2013-04-07 08:22:00,
2013-04-07 04:33:00,53.0,52.0,30.16,ENE,77,1.0,2.0,97,0.00,,,0.00,,2013-04-07 08:33:00,
2013-04-07 04:42:00,53.0,52.0,30.16,ENE,77,1.0,2.0,97,0.00,,,0.00,,2013-04-07 08:42:00,
2013-04-07 04:53:00,53.0,52.0,30.16,ENE,77,1.0,2.0,97,0.00,,,0.00,,2013-04-07 08:53:00,
2013-04-07 05:02:00,53.0,52.0,30.16,ENE,77,1.0,2.0,97,0.00,,,0.00,,2013-04-07 09:02:00,
2013-04-07 05:12:00,53.0,52.0,30.16,ENE,77,1.0,2.0,97,0.00,,,0.00,,2013-04-07 09:12:00,
2013-04-07 05:23:00,52.0,51.0,30.16,NE,41,0.0,1.0,97,0.00,,,0.00,,2013-04-07 09:23:00,
2013-04-07 05:34:00,52.0,51.0,30.16,NE,41,0.0,1.0,97,0.00,,,0.00,,2013-04-07 09:34:00,
2013-04-07 05:45:00,52.0,51.0,30.16,NE,41,0.0,1.0,97,0.00,,,0.00,,2013-04-07 09:45:00,
2013-04-07 05:54:00,51.0,50.0,30.16,NE,43,1.0,2.0,97,0.00,,,0.00,,2013-04-07 09:54:00,
2013-04-07 06:04:00,51.0,50.0,30.16,East,83,1.0,3.0,97,0.00,,,0.00,,2013-04-07 10:04:00,
2013-04-07 06:14:00,51.0,50.0,30.16,East,83,1.0,3.0,97,0.00,,,0.00,,2013-04-07 10:14:00,
2013-04-07 06:23:00,52.0,51.0,30.16,NE,38,1.0,3.0,98,0.00,,,0.00,,2013-04-07 10:23:00,
2013-04-07 06:33:00,52.0,51.0,30.16,NE,36,1.0,3.0,98,0.00,,,0.00,,2013-04-07 10:33:00,
2013-04-07 06:43:00,52.0,51.0,30.16,NE,36,1.0,3.0,98,0.00,,,0.00,,2013-04-07 10:43:00,
2013-04-07 06:54:00,52.0,51.0,30.17,ENE,73,1.0,2.0,98,0.00,,,0.00,,2013-04-07 10:54:00,
2013-04-07 07:03:00,52.0,51.0,30.17,NE,48,0.0,2.0,98,0.00,,,0.00,,2013-04-07 11:03:00,
2013-04-07 07:12:00,52.0,51.0,30.17,NE,48,0.0,2.0,98,0.00,,,0.00,,2013-04-07 11:12:00,
2013-04-07 07:23:00,52.0,51.0,30.18,ENE,63,1.0,3.0,98,0.00,,,0.00,,2013-04-07 11:23:00,
2013-04-07 07:33:00,53.0,52.0,30.18,East,79,1.0,3.0,98,0.00,,,0.00,,2013-04-07 11:33:00,
2013-04-07 07:43:00,53.0,52.0,30.18,East,79,1.0,3.0,98,0.00,,,0.00,,2013-04-07 11:43:00,
2013-04-07 07:53:00,53.0,52.0,30.19,NE,41,1.0,2.0,98,0.00,,,0.00,,2013-04-07 11:53:00,
2013-04-07 08:12:00,53.0,53.0,30.19,NE,41,1.0,2.0,99,0.00,,,0.00,,2013-04-07 12:12:00,
2013-04-07 08:23:00,53.0,53.0,30.19,NE,41,1.0,2.0,99,0.00,,,0.00,,2013-04-07 12:23:00,
2013-04-07 08:34:00,53.0,53.0,30.19,NE,41,1.0,2.0,99,0.00,,,0.00,,2013-04-07 12:34:00,
2013-04-07 08:43:00,53.0,53.0,30.19,NE,41,1.0,2.0,99,0.00,,,0.00,,2013-04-07 12:43:00,
2013-04-07 09:33:00,62.0,59.0,30.22,ESE,120,2.0,8.0,89,0.00,,,0.00,,2013-04-07 13:33:00,
2013-04-07 09:43:00,62.0,59.0,30.22,ESE,120,2.0,8.0,89,0.00,,,0.00,,2013-04-07 13:43:00,
2013-04-07 09:53:00,63.0,59.0,30.22,ESE,107,2.0,9.0,87,0.00,,,0.00,,2013-04-07 13:53:00,
2013-04-07 10:02:00,63.0,59.0,30.22,ESE,107,2.0,9.0,87,0.00,,,0.00,,2013-04-07 14:02:00,
2013-04-07 10:13:00,63.0,59.0,30.22,ESE,107,2.0,9.0,87,0.00,,,0.00,,2013-04-07 14:13:00,
2013-04-07 10:23:00,65.0,59.0,30.22,NNE,18,2.0,8.0,82,0.00,,,0.00,,2013-04-07 14:23:00,
2013-04-07 10:33:00,66.0,60.0,30.22,SSE,151,4.0,8.0,80,0.00,,,0.00,,2013-04-07 14:33:00,
2013-04-07 10:44:00,66.0,60.0,30.22,SSE,151,4.0,8.0,80,0.00,,,0.00,,2013-04-07 14:44:00,
2013-04-07 10:55:00,67.0,59.0,30.23,ESE,103,3.0,10.0,76,0.00,,,0.00,,2013-04-07 14:55:00,
2013-04-07 11:03:00,68.0,60.0,30.23,North,359,3.0,9.0,76,0.00,,,0.00,,2013-04-07 15:03:00,
2013-04-07 11:13:00,68.0,60.0,30.23,North,359,3.0,9.0,76,0.00,,,0.00,,2013-04-07 15:13:00,
2013-04-07 11:22:00,68.0,59.0,30.23,East,100,5.0,13.0,73,0.00,,,0.00,,2013-04-07 15:22:00,
2013-04-07 11:35:00,69.0,59.0,30.23,NE,41,5.0,9.0,71,0.00,,,0.00,,2013-04-07 15:35:00,
2013-04-07 11:45:00,69.0,59.0,30.23,NE,41,5.0,9.0,71,0.00,,,0.00,,2013-04-07 15:45:00,
2013-04-07 11:55:00,70.0,60.0,30.23,East,86,3.0,12.0,70,0.00,,,0.00,,2013-04-07 15:55:00,
2013-04-07 12:04:00,71.0,60.0,30.23,ENE,63,4.0,13.0,68,0.00,,,0.00,,2013-04-07 16:04:00,
2013-04-07 12:14:00,71.0,60.0,30.23,ENE,63,4.0,13.0,68,0.00,,,0.00,,2013-04-07 16:14:00,
2013-04-07 12:25:00,71.0,60.0,30.22,NNE,20,3.0,10.0,68,0.00,,,0.00,,2013-04-07 16:25:00,
2013-04-07 12:33:00,71.0,59.0,30.22,NNE,23,3.0,8.0,66,0.00,,,0.00,,2013-04-07 16:33:00,
2013-04-07 12:43:00,71.0,59.0,30.22,NNE,23,3.0,8.0,66,0.00,,,0.00,,2013-04-07 16:43:00,
2013-04-07 12:54:00,72.0,60.0,30.22,East,94,3.0,9.0,65,0.00,,,0.00,,2013-04-07 16:54:00,
2013-04-07 13:05:00,73.0,59.0,30.22,ESE,107,5.0,10.0,61,0.00,,,0.00,,2013-04-07 17:05:00,
2013-04-07 13:13:00,73.0,59.0,30.22,ESE,107,5.0,10.0,61,0.00,,,0.00,,2013-04-07 17:13:00,
2013-04-07 13:24:00,73.0,56.0,30.21,East,79,5.0,8.0,56,0.00,,,0.00,,2013-04-07 17:24:00,
2013-04-07 13:33:00,73.0,56.0,30.21,SSE,160,4.0,8.0,55,0.00,,,0.00,,2013-04-07 17:33:00,
2013-04-07 13:43:00,73.0,56.0,30.21,SSE,160,4.0,8.0,55,0.00,,,0.00,,2013-04-07 17:43:00,
2013-04-07 13:54:00,73.0,55.0,30.20,ESE,111,5.0,12.0,53,0.00,,,0.00,,2013-04-07 17:54:00,
2013-04-07 14:02:00,74.0,55.0,30.20,SE,126,3.0,10.0,52,0.00,,,0.00,,2013-04-07 18:02:00,
2013-04-07 14:14:00,74.0,55.0,30.20,SE,126,3.0,10.0,52,0.00,,,0.00,,2013-04-07 18:14:00,
2013-04-07 14:23:00,74.0,54.0,30.19,East,98,5.0,10.0,50,0.00,,,0.00,,2013-04-07 18:23:00,
2013-04-07 14:33:00,74.0,54.0,30.19,East,95,5.0,12.0,49,0.00,,,0.00,,2013-04-07 18:33:00,
2013-04-07 14:43:00,74.0,54.0,30.19,East,95,5.0,12.0,49,0.00,,,0.00,,2013-04-07 18:43:00,
2013-04-07 14:53:00,74.0,54.0,30.18,ESE,115,5.0,10.0,49,0.00,,,0.00,,2013-04-07 18:53:00,
2013-04-07 15:03:00,74.0,55.0,30.17,ENE,64,7.0,13.0,51,0.00,,,0.00,,2013-04-07 19:03:00,
2013-04-07 15:13:00,74.0,55.0,30.17,ENE,64,7.0,13.0,51,0.00,,,0.00,,2013-04-07 19:13:00,
2013-04-07 15:23:00,74.0,57.0,30.16,SE,125,5.0,13.0,56,0.00,,,0.00,,2013-04-07 19:23:00,
2013-04-07 15:33:00,73.0,56.0,30.16,SE,133,4.0,12.0,56,0.00,,,0.00,,2013-04-07 19:33:00,
2013-04-07 15:43:00,73.0,56.0,30.16,SE,133,4.0,12.0,56,0.00,,,0.00,,2013-04-07 19:43:00,
2013-04-07 15:55:00,74.0,58.0,30.16,SSE,161,4.0,12.0,58,0.00,,,0.00,,2013-04-07 19:55:00,
2013-04-07 16:03:00,74.0,58.0,30.15,SSE,158,5.0,13.0,58,0.00,,,0.00,,2013-04-07 20:03:00,
2013-04-07 16:13:00,74.0,58.0,30.15,SSE,158,5.0,13.0,58,0.00,,,0.00,,2013-04-07 20:13:00,
2013-04-07 16:23:00,73.0,59.0,30.15,ESE,114,5.0,12.0,62,0.00,,,0.00,,2013-04-07 20:23:00,
2013-04-07 16:33:00,72.0,59.0,30.15,SE,127,6.0,12.0,63,0.00,,,0.00,,2013-04-07 20:33:00,
2013-04-07 16:43:00,72.0,59.0,30.15,SE,127,6.0,12.0,63,0.00,,,0.00,,2013-04-07 20:43:00,
2013-04-07 16:55:00,71.0,58.0,30.14,SE,143,5.0,12.0,64,0.00,,,0.00,,2013-04-07 20:55:00,
2013-04-07 17:03:00,71.0,59.0,30.14,SSE,156,4.0,9.0,67,0.00,,,0.00,,2013-04-07 21:03:00,
2013-04-07 17:13:00,71.0,59.0,30.14,SSE,156,4.0,9.0,67,0.00,,,0.00,,2013-04-07 21:13:00,
2013-04-07 17:23:00,70.0,59.0,30.14,SSE,151,2.0,10.0,69,0.00,,,0.00,,2013-04-07 21:23:00,
2013-04-07 17:34:00,70.0,59.0,30.14,East,81,5.0,13.0,69,0.00,,,0.00,,2013-04-07 21:34:00,
2013-04-07 17:45:00,70.0,59.0,30.14,East,81,5.0,13.0,69,0.00,,,0.00,,2013-04-07 21:45:00,
2013-04-07 17:55:00,70.0,60.0,30.14,East,100,5.0,9.0,71,0.00,,,0.00,,2013-04-07 21:55:00,
2013-04-07 18:04:00,69.0,59.0,30.14,SE,138,1.0,12.0,71,0.00,,,0.00,,2013-04-07 22:04:00,
2013-04-07 18:15:00,69.0,59.0,30.14,SE,138,1.0,12.0,71,0.00,,,0.00,,2013-04-07 22:15:00,
2013-04-07 18:24:00,69.0,59.0,30.14,ESE,109,4.0,10.0,71,0.00,,,0.00,,2013-04-07 22:24:00,
2013-04-07 18:34:00,69.0,59.0,30.13,South,179,1.0,8.0,71,0.00,,,0.00,,2013-04-07 22:34:00,
2013-04-07 18:43:00,69.0,59.0,30.13,South,179,1.0,8.0,71,0.00,,,0.00,,2013-04-07 22:43:00,
2013-04-07 18:54:00,69.0,60.0,30.13,SE,146,4.0,8.0,73,0.00,,,0.00,,2013-04-07 22:54:00,
2013-04-07 19:13:00,68.0,60.0,30.13,SSE,147,3.0,10.0,75,0.00,,,0.00,,2013-04-07 23:13:00,
2013-04-07 19:23:00,68.0,61.0,30.13,SE,142,3.0,7.0,77,0.00,,,0.00,,2013-04-07 23:23:00,
2013-04-07 19:32:00,67.0,60.0,30.13,SSE,168,2.0,6.0,77,0.00,,,0.00,,2013-04-07 23:32:00,
2013-04-07 19:43:00,67.0,60.0,30.13,SSE,168,2.0,6.0,77,0.00,,,0.00,,2013-04-07 23:43:00,
2013-04-07 19:53:00,66.0,60.0,30.13,SE,135,2.0,6.0,80,0.00,,,0.00,,2013-04-07 23:53:00,
2013-04-07 20:03:00,66.0,60.0,30.13,SE,130,2.0,5.0,81,0.00,,,0.00,,2013-04-08 00:03:00,
2013-04-07 20:12:00,66.0,60.0,30.13,SE,130,2.0,5.0,81,0.00,,,0.00,,2013-04-08 00:12:00,
2013-04-07 20:23:00,65.0,60.0,30.13,SE,144,3.0,6.0,84,0.00,,,0.00,,2013-04-08 00:23:00,
2013-04-07 20:33:00,65.0,60.0,30.13,SSE,154,3.0,6.0,85,0.00,,,0.00,,2013-04-08 00:33:00,
2013-04-07 20:42:00,65.0,60.0,30.13,SSE,154,3.0,6.0,85,0.00,,,0.00,,2013-04-08 00:42:00,
2013-04-07 20:53:00,64.0,59.0,30.13,South,176,2.0,6.0,85,0.00,,,0.00,,2013-04-08 00:53:00,
2013-04-07 21:03:00,64.0,60.0,30.13,SSE,163,2.0,6.0,86,0.00,,,0.00,,2013-04-08 01:03:00,
2013-04-07 21:12:00,64.0,60.0,30.13,SSE,163,2.0,6.0,86,0.00,,,0.00,,2013-04-08 01:12:00,
2013-04-07 21:23:00,64.0,60.0,30.14,South,170,1.0,5.0,86,0.00,,,0.00,,2013-04-08 01:23:00,
2013-04-07 21:33:00,63.0,59.0,30.14,SE,127,1.0,3.0,87,0.00,,,0.00,,2013-04-08 01:33:00,
2013-04-07 21:44:00,63.0,59.0,30.14,SE,127,1.0,3.0,87,0.00,,,0.00,,2013-04-08 01:44:00,
2013-04-07 21:55:00,62.0,59.0,30.14,East,93,0.0,2.0,89,0.00,,,0.00,,2013-04-08 01:55:00,
2013-04-07 22:03:00,62.0,59.0,30.15,East,95,0.0,2.0,90,0.00,,,0.00,,2013-04-08 02:03:00,
2013-04-07 22:12:00,62.0,59.0,30.15,East,95,0.0,2.0,90,0.00,,,0.00,,2013-04-08 02:12:00,
2013-04-07 22:22:00,61.0,58.0,30.15,East,95,0.0,2.0,90,0.00,,,0.00,,2013-04-08 02:22:00,
2013-04-07 22:33:00,60.0,57.0,30.15,East,95,0.0,2.0,91,0.00,,,0.00,,2013-04-08 02:33:00,
2013-04-07 22:48:00,60.0,57.0,30.15,East,95,0.0,2.0,91,0.00,,,0.00,,2013-04-08 02:48:00,
2013-04-07 22:55:00,60.0,58.0,30.15,East,94,0.0,1.0,93,0.00,,,0.00,,2013-04-08 02:55:00,
2013-04-07 23:08:00,59.0,57.0,30.15,East,94,0.0,2.0,94,0.00,,,0.00,,2013-04-08 03:08:00,
2013-04-07 23:15:00,59.0,57.0,30.15,East,94,0.0,2.0,94,0.00,,,0.00,,2013-04-08 03:15:00,
2013-04-07 23:25:00,59.0,57.0,30.15,East,95,0.0,1.0,94,0.00,,,0.00,,2013-04-08 03:25:00,
2013-04-07 23:35:00,59.0,57.0,30.15,East,97,0.0,2.0,94,0.00,,,0.00,,2013-04-08 03:35:00,
2013-04-07 23:48:00,59.0,57.0,30.15,East,97,0.0,2.0,94,0.00,,,0.00,,2013-04-08 03:48:00,
2013-04-07 23:58:00,58.0,57.0,30.15,East,97,0.0,1.0,95,0.00,,,0.00,,2013-04-08 03:58:00,